TimeEST,TemperatureF,Dew PointF,Humidity,Sea Level PressureIn,VisibilityMPH,Wind Direction,Wind SpeedMPH,Gust SpeedMPH,PrecipitationIn,Events,Conditions,WindDirDegrees,DateUTC
12:54 AM,26.1,25.0,96,29.99,6.0,NNW,3.5,-,0.00,,Overcast,330,2013-02-03 05:54:00
1:54 AM,24.1,23.0,96,29.98,6.0,Calm,Calm,-,N/A,,Overcast,0,2013-02-03 06:54:00
2:54 AM,24.1,21.9,91,29.96,6.0,Calm,Calm,-,N/A,,Overcast,0,2013-02-03 07:54:00
3:54 AM,23.0,21.0,92,29.94,6.0,Calm,Calm,-,N/A,,Overcast,0,2013-02-03 08:54:00
4:54 AM,21.0,21.0,100,29.93,6.0,Calm,Calm,-,N/A,,Overcast,0,2013-02-03 09:54:00
5:54 AM,21.0,19.0,92,29.93,6.0,Calm,Calm,-,N/A,,Mostly Cloudy,0,2013-02-03 10:54:00
6:54 AM,21.0,19.0,92,29.93,4.0,Calm,Calm,-,N/A,,Mostly Cloudy,0,2013-02-03 11:54:00
7:26 AM,21.2,17.6,86,29.93,4.0,Variable,3.5,-,N/A,,Mostly Cloudy,0,2013-02-03 12:26:00
7:54 AM,21.0,19.9,96,29.94,5.0,Variable,3.5,-,N/A,,Overcast,0,2013-02-03 12:54:00
8:54 AM,27.0,24.1,89,29.95,5.0,NE,5.8,-,0.00,Snow,Light Snow,40,2013-02-03 13:54:00
9:10 AM,26.6,24.8,93,29.95,5.0,NE,6.9,-,0.00,,Overcast,40,2013-02-03 14:10:00
9:24 AM,26.6,24.8,93,29.94,6.0,NE,6.9,-,0.00,,Overcast,40,2013-02-03 14:24:00
9:54 AM,27.0,24.1,89,29.94,5.0,NE,3.5,-,0.00,,Overcast,50,2013-02-03 14:54:00
10:43 AM,28.4,24.8,86,29.92,6.0,East,3.5,-,N/A,,Overcast,80,2013-02-03 15:43:00
10:54 AM,28.9,24.1,82,29.92,6.0,East,3.5,-,N/A,,Haze,80,2013-02-03 15:54:00
11:40 AM,30.2,23.0,75,29.90,7.0,Calm,Calm,-,N/A,,Mostly Cloudy,0,2013-02-03 16:40:00
11:54 AM,30.0,23.0,75,29.90,7.0,Calm,Calm,-,N/A,,Overcast,0,2013-02-03 16:54:00
12:40 PM,30.2,24.8,80,29.87,7.0,Calm,Calm,-,0.00,Snow,Light Snow,0,2013-02-03 17:40:00
12:54 PM,30.9,23.0,72,29.87,7.0,Calm,Calm,-,0.00,,Mostly Cloudy,0,2013-02-03 17:54:00
1:54 PM,34.0,24.1,67,29.85,9.0,Calm,Calm,-,N/A,,Mostly Cloudy,0,2013-02-03 18:54:00
2:41 PM,33.8,23.0,65,29.83,8.0,WNW,5.8,-,0.00,Snow,Light Snow,290,2013-02-03 19:41:00
2:54 PM,33.1,24.1,70,29.84,8.0,West,8.1,-,0.00,Snow,Light Snow,270,2013-02-03 19:54:00
3:45 PM,33.8,26.6,75,29.84,9.0,West,4.6,-,0.00,,Mostly Cloudy,270,2013-02-03 20:45:00
3:54 PM,34.0,26.1,73,29.84,9.0,SW,6.9,-,0.00,Snow,Light Snow,220,2013-02-03 20:54:00
4:36 PM,32.0,26.6,80,29.84,9.0,SW,4.6,-,0.00,,Mostly Cloudy,220,2013-02-03 21:36:00
4:54 PM,32.0,26.1,79,29.83,9.0,SSW,3.5,-,0.00,,Mostly Cloudy,210,2013-02-03 21:54:00
5:54 PM,30.9,27.0,85,29.84,9.0,South,3.5,-,N/A,,Mostly Cloudy,190,2013-02-03 22:54:00
6:54 PM,30.0,27.0,88,29.85,7.0,Calm,Calm,-,N/A,,Mostly Cloudy,0,2013-02-03 23:54:00
7:54 PM,30.0,26.1,85,29.86,9.0,SW,4.6,-,0.00,,Mostly Cloudy,220,2013-02-04 00:54:00
8:54 PM,30.9,27.0,85,29.87,8.0,WSW,5.8,-,N/A,,Mostly Cloudy,240,2013-02-04 01:54:00
9:54 PM,32.0,26.1,79,29.89,7.0,West,10.4,-,N/A,,Overcast,280,2013-02-04 02:54:00
9:58 PM,32.0,26.6,80,29.89,2.0,WNW,12.7,19.6,0.00,Snow,Light Snow,290,2013-02-04 02:58:00
10:09 PM,32.0,26.6,80,29.89,5.0,West,13.8,-,0.00,Snow,Light Snow,280,2013-02-04 03:09:00
10:32 PM,32.0,24.8,75,29.90,10.0,West,9.2,-,0.00,,Overcast,280,2013-02-04 03:32:00
10:54 PM,32.0,21.0,64,29.91,10.0,WNW,12.7,18.4,0.00,,Overcast,300,2013-02-04 03:54:00
11:54 PM,30.0,16.0,56,29.94,10.0,WNW,13.8,23.0,N/A,,Mostly Cloudy,290,2013-02-04 04:54:00